Home > Weather > Vientiane > Past weeks

Flag for Laos Weather for the Past 2 Weeks in Vientiane, Laos

Now
72 °F

Passing clouds.


Feels Like: 77 °F
Forecast: 47 / 78 °F
Wind: 5 mph from Southeast

Location: Vientiane Airport

Current Time: Feb 8, 2016 at 1:52:38 PM

Latest Report: Feb 8, 2016 at 1:00 PM


Visibility: 5 mi

Pressure: 30.09 "Hg

Humidity: 44%

Dew point: 48 °F

Location of VientianeLocation

Historic Weather in Vientiane — Graph

°F

Vientiane Temperature Yesterday

Maximum temperature yesterday: 75 °F (at 3:00 PM)
Minimum temperature yesterday: 55 °F (at 7:00 AM)
Average temperature yesterday: 68 °F

High & Low Weather Summary for the Past Weeks

 TemperatureHumidityPressure
High90 °F (Feb 1, 3:30 PM)100% (Jan 26, 8:30 AM)30.36 "Hg (Jan 26, 8:30 AM)
Low50 °F (Jan 24, 8:00 PM)36% (Feb 7, 3:00 PM)29.80 "Hg (Jan 31, 3:00 PM)
Average70 °F72%30.03 "Hg
* Reported Jan 24 1:00 PM — Feb 8 1:00 PM, Vientiane, Weather by CustomWeather, © 2016

Note: Actual official high and low records may vary slightly from our data, if they occured in-between our weather recording intervals... More about our weather records

Advertising

Vientiane Weather History for the Previous 24 Hours

 ConditionsComfort  
Time TempWeatherWind HumidityBarometerVisibility
1:00 PM
Mon, Feb 8
72 °FPassing clouds.5 mph44%30.09 "Hg5 mi
12:00 PM70 °FPassing clouds.5 mph40%30.15 "Hg5 mi
11:30 AM68 °FPassing clouds.2 mph46%30.15 "Hg5 mi
11:00 AM64 °FPassing clouds.2 mph52%30.18 "Hg5 mi
10:30 AM64 °FScattered clouds.2 mph52%30.21 "Hg5 mi
10:00 AM63 °FScattered clouds.2 mph56%30.21 "Hg4 mi
9:30 AM63 °FPassing clouds.2 mph52%30.21 "Hg4 mi
9:00 AM59 °FPassing clouds.2 mph59%30.18 "Hg4 mi
8:30 AM57 °FFog.2 mph72%30.18 "Hg3 mi
8:00 AM54 °FFog.2 mph82%30.18 "Hg3 mi
7:30 AM52 °FFog.2 mph88%30.15 "Hg3 mi
6:30 AM50 °FFog.2 mph82%30.12 "Hg2 mi
6:00 AM50 °FFog.2 mph82%30.12 "Hg2 mi
11:00 PM
Sun, Feb 7
63 °FFog.5 mph45%30.18 "Hg2 mi
10:30 PM63 °FFog.5 mph45%30.15 "Hg2 mi
10:00 PM64 °FFog.7 mph43%30.15 "Hg2 mi
9:00 PM64 °FFog.5 mph46%30.15 "Hg2 mi
8:30 PM66 °FFog.5 mph43%30.12 "Hg2 mi
8:00 PM66 °FFog.7 mph43%30.12 "Hg2 mi
7:30 PM68 °FFog.5 mph43%30.09 "Hg2 mi
7:00 PM70 °FFog.5 mph40%30.09 "Hg2 mi
6:30 PM68 °FFog.5 mph49%30.12 "Hg3 mi
6:00 PM70 °FPartly sunny.7 mph46%30.12 "Hg4 mi
5:30 PM72 °FScattered clouds.5 mph50%30.09 "Hg6 mi
4:30 PM75 °FSunny.2 mph44%30.07 "Hg10 mi
4:00 PM75 °FSunny.2 mph44%30.07 "Hg10 mi
3:30 PM75 °FSunny.5 mph36%30.12 "Hg10 mi
3:00 PM75 °FSunny.2 mph36%30.12 "Hg10 mi
2:30 PM73 °FSunny.2 mph38%30.15 "Hg10 mi
2:00 PM73 °FSunny.5 mph38%30.15 "Hg10 mi
1:00 PM72 °FSunny.5 mph44%30.18 "Hg10 mi
Weather by CustomWeather, © 2016

See weather overviewHow to use our weather pages